Location: Asheville, NC
(35.6000°N, 82.5500°W)
Time: 00:19:30
(UTC-04:00)

M-CUBED/EXP-1 PRIME - Pass Details

Date: 10 March 2018
Orbit: 431 x 675 km, 101.7° (Epoch: 22 June)

Event Time Altitude Azimuth Distance (km) Brightness Sun altitude
Rises 05:58:33 0° 43° (NE) 2,853 ? -10.9°
Reaches altitude 10° 06:01:57 10° 73° (ENE) 1,998 ? -10.2°
Maximum altitude 06:03:48 12° 98° (E) 1,859 ? -9.8°
Drops below altitude 10° 06:05:40 10° 124° (ESE) 2,041 ? -9.4°
Sets 06:09:13 0° 153° (SSE) 2,982 ? -8.7°
